Simultaneous Nadir Overpasses (SNOs) Predictions

Prediction of SNOs between LANDSAT-8 and METOP-B Satellite Orbit:

Table of predicted SNOs for the next 14.0 days since TLE Epoch: 2/29/2020
Index Date (LANDSAT-8) Time (LANDSAT-8) Lat,Lon (LANDSAT-8) SZA (LANDSAT-8 ) Date (METOP-B) Time (METOP-B) Lat,Lon (METOP-B) SZA (METOP-B ) Distance(km) Time Diff (sec)
1 03/02/2020 05:21:38 81.07, 138.46 89.73 03/02/2020 05:20:47 81.08, 138.45 89.71 0.42 51
2 03/02/2020 06:11:04 -81.09, -53.61 90.25 03/02/2020 06:11:27 -81.09, -53.76 90.25 2.65 23
3 03/05/2020 00:55:51 81.08,-155.05 88.67 03/05/2020 00:55:09 81.08,-155.03 88.66 0.54 42
4 03/05/2020 01:45:17 -81.10, 12.90 91.30 03/05/2020 01:45:49 -81.10, 12.76 91.30 2.44 32
5 03/07/2020 20:30:05 81.08, -88.60 87.60 03/07/2020 20:29:32 81.09, -88.52 87.60 1.51 33
6 03/07/2020 21:19:31 -81.10, 79.38 92.37 03/07/2020 21:20:12 -81.10, 79.27 92.36 1.84 41
7 03/10/2020 16:04:18 81.10, -21.82 86.57 03/10/2020 16:03:54 81.10, -21.65 86.57 2.93 24
8 03/10/2020 16:53:45 -81.10, 145.83 93.45 03/10/2020 16:54:35 -81.11, 145.78 93.43 0.93 50
9 03/13/2020 11:38:31 81.10, 44.57 85.47 03/13/2020 11:38:17 81.09, 44.47 85.45 1.85 14




NCC Satellite Simultaneous Nadir Overpasses (SNOs) Prediction Service
